Volver al catálogo

STARLINK-35069

ActivoComunicacionesVLEO
NORAD 66268·PAYLOAD·🇺🇸 United States

Lanzado Oct 31, 2025 desde Vandenberg Space Force Base

Loading…

Próximos Pases (próximas 24 horas)

TLE

ActualizadoSource: CelesTrak SupGP

Época: Sep 14, 2026, 21:19 UTC

1 66268C 25247D   26257.88868056  .00033131  00000+0  97909-3 0  2573
2 66268  53.1606  29.6665 0001215  70.5331 257.5872 15.34366541    18

Sigue STARLINK-35069 en tiempo real con AllMySat

Download on the App Store